SONATE-2

Last updated on Sun Dec 07 2025 00:03:12 GMT+0000 (Coordinated Universal Time)

1 59112U 24043Q 25340.62895919 .00044028 00000+0 94332-3 0 9995 2 59112 97.5332 116.6544 0008952 183.7748 176.3434 15.44595646 98035
UTC large
Height (km)
Speed (km/s)
/
Latitude / Longitude
Inclination (degrees)
Orbital Period (minutes)
Azimuth
Elevation
Range (km)
Doppler Factor

Next 0 passes for location: London (51.5072 / 0.1276)

Sorry there are no passes over London.